[[{"header":{"parameterUnit":"m.s-1","parameterCategory":1,"la1":30.2991,"la2":30.254,"lo1":-89.0895,"lo2":-89.0444,"dy":0.0017,"dx":0.0017,"nx":28,"ny":28,"refTime":"2026-02-24T09:00:00:Z","depth":0,"parameterNumber":2,"parameterNumberName":"U-component_of_WINDS"},"data":[0,0,0,0,0,0,0,0,0,0,0,0,0,0,0,0,0,0,0,0,0,0,0,0,0,0,0,0,0,0,0,0,0,0,0,0,0,0,0,0,0,0,0,0,0,0,0,0,0,0,0,0,0,0,0,0,0,0,1.4783,1.4783,0,1.4833,1.4834,1.4834,1.4852,1.4851,1.4851,1.4851,1.4901,1.4903,1.4904,0,0,0,0,0,0,0,0,0,0,0,0,0,1.4701,1.4703,1.4783,1.4783,1.4784,1.4833,1.4834,1.4834,1.4852,1.4851,1.4851,1.4851,1.4901,1.4903,1.4905,0,0,0,0,0,0,0,0,0,0,0,0,0,1.4743,1.4703,1.4783,1.4798,1.48,1.4833,1.4834,1.4835,1.4852,1.4851,1.4851,1.4851,1.49,1.4903,1.4905,1.4925,0,0,1.4912,1.4913,0,0,0,0,0,0,0,0,1.474,1.4746,1.4795,1.4797,1.48,1.4836,1.4824,1.4865,1.4852,1.4832,1.4851,1.4851,1.488,1.4884,1.4894,1.4927,1.493,1.4912,1.4913,1.4914,1.4915,0,0,0,0,0,0,0,1.4737,1.4744,1.4803,1.4796,1.4799,1.4803,1.4809,1.4832,1.4857,1.4834,1.4835,1.4841,1.4881,1.4892,1.4895,1.493,1.4912,1.4914,1.4915,1.4916,1.4984,1.4985,0,0,0,0,0,0,1.4732,1.4741,1.4801,1.4804,1.4769,1.4805,1.4811,1.4824,1.4857,1.4861,1.4841,1.4842,1.4888,1.4892,1.4897,1.4923,1.4914,1.4917,1.4918,1.4984,1.4984,1.4985,0,0,0,0,0,0,1.473,1.4737,1.4799,1.4773,1.4781,1.4807,1.4821,1.4826,1.4836,1.4862,1.4867,1.4847,1.4888,1.4894,1.4918,1.4925,1.4918,1.492,1.4983,1.4984,1.4985,1.4976,0,0,0,0,0,0,1.4728,1.4736,1.4744,1.4773,1.4783,1.4819,1.4822,1.4827,1.484,1.4841,1.4869,1.4874,1.4888,1.4915,1.4921,1.4928,1.4922,1.4983,1.4984,1.4984,1.4975,1.4976,1.4976,0,0,0,0,0,1.4725,1.4739,1.4744,1.4752,1.4793,1.482,1.4825,1.4841,1.4841,1.4849,1.4866,1.4873,1.4924,1.4917,1.4924,1.4932,1.4982,1.4983,1.4984,1.4975,1.4976,1.4976,0,0,0,0,0,0,1.471,1.4743,1.4749,1.4774,1.4794,1.4823,1.4833,1.4841,1.4862,1.4862,1.4881,1.4887,1.491,1.4924,1.4916,1.4954,1.4954,1.4956,1.4944,1.4945,1.4946,1.4942,1.4923,0,0,0,0,0,1.4709,1.4728,1.4757,1.4775,1.4785,1.4807,1.482,1.4831,1.4852,1.4861,1.4879,1.49,1.4921,1.4934,1.4954,1.4978,1.4985,1.4987,1.4988,1.4988,1.4989,1.5004,1.5006,1.4988,1.4988,1.4988,0,0,1.4708,1.4729,1.474,1.4773,1.479,1.4809,1.4814,1.4834,1.4849,1.4864,1.4888,1.4903,1.4927,1.4951,1.4963,1.4963,1.4996,1.4989,1.4989,1.4991,1.5005,1.5007,1.5008,1.4989,1.4989,1.4988,0,0,1.4716,1.4734,1.4752,1.4769,1.4795,1.481,1.4814,1.4842,1.4853,1.4878,1.489,1.4907,1.4942,1.496,1.4973,1.4989,1.4997,1.4996,1.4998,1.5011,1.5013,1.5014,1.502,1.5022,1.4997,1.4997,1.4997,0,1.4712,1.4742,1.476,1.478,1.4794,1.4809,1.4828,1.4843,1.4874,1.4884,1.4884,1.493,1.4947,1.4976,1.498,1.499,1.4996,1.4992,1.5011,1.5013,1.5014,1.502,1.5023,1.4997,1.4997,1.4997,1.4997,0,1.4735,1.4756,1.4767,1.4797,1.4813,1.4832,1.4853,1.4867,1.4878,1.4893,1.4919,1.494,1.4966,1.4974,1.4983,1.5005,1.5004,1.5008,1.5007,1.5015,1.5021,1.5024,1.4996,1.4997,1.4997,1.4997,0,0,1.4734,1.4775,1.4779,1.4793,1.4824,1.484,1.486,1.4886,1.4898,1.4919,1.4936,1.4967,1.4971,1.4986,1.4998,1.501,1.5022,1.5012,1.5013,1.5013,1.5048,1.5045,1.5047,1.5028,1.5029,1.5029,1.5046,0,1.4746,1.4782,1.48,1.4829,1.4849,1.4864,1.4882,1.4903,1.4918,1.4937,1.4953,1.4975,1.4978,1.4987,1.5,1.5018,1.503,1.5017,1.5044,1.5045,1.5037,1.505,1.5047,1.5061,1.5048,1.5049,1.5049,0,1.4765,1.4787,1.4818,1.4847,1.4856,1.4871,1.4897,1.4915,1.4939,1.4949,1.4967,1.4979,1.5001,1.5,1.5031,1.5022,1.5035,1.5046,1.5047,1.5049,1.5047,1.5053,1.5066,1.5068,1.5053,1.5052,1.5052,0,1.4761,1.4798,1.4822,1.4834,1.4868,1.4879,1.4894,1.4918,1.4932,1.4955,1.4965,1.4989,1.5003,1.5022,1.504,1.5037,1.507,1.507,1.5079,1.5078,1.5084,1.5083,1.5099,1.5093,1.5093,1.5093,1.5093,0,1.4772,1.479,1.4821,1.4835,1.4856,1.4877,1.4898,1.4914,1.4935,1.4953,1.4968,1.4985,1.5009,1.5029,1.5043,1.5067,1.5073,1.5082,1.5086,1.5081,1.5079,1.5088,1.5088,1.5093,1.5093,1.5093,1.5093,0,1.4771,1.4792,1.4819,1.485,1.4858,1.4872,1.4899,1.4914,1.493,1.4953,1.496,1.4986,1.501,1.5031,1.5062,1.5072,1.5097,1.5102,1.5089,1.5091,1.5099,1.5098,1.5121,1.5125,1.5115,1.5116,1.5116,0,1.4776,1.4791,1.4824,1.4837,1.4852,1.4874,1.4889,1.491,1.4926,1.4955,1.4967,1.4992,1.5014,1.5052,1.5073,1.5098,1.5103,1.511,1.5107,1.5102,1.5103,1.5102,1.5104,1.511,1.511,1.511,1.511,0,1.4784,1.4794,1.4816,1.4841,1.4859,1.4881,1.4902,1.4912,1.4938,1.4954,1.4979,1.4996,1.5029,1.5055,1.5082,1.5098,1.5108,1.5111,1.5114,1.5108,1.51,1.5105,1.5089,1.511,1.511,1.511,1.511,1.511,1.4787,1.4801,1.4826,1.485,1.4869,1.4889,1.4905,1.4924,1.4945,1.4974,1.4985,1.5011,1.5037,1.5075,1.509,1.5111,1.5113,1.5117,1.5119,1.5119,1.5119,1.5098,1.5116,1.5116,1.5116,1.5116,1.5117,0,1.4796,1.4813,1.4835,1.4865,1.4884,1.4892,1.4917,1.4932,1.4955,1.4978,1.4999,1.5029,1.5054,1.5078,1.5104,1.5116,1.5122,1.5123,1.5122,1.5125,1.5116,1.511,1.5118,1.5118,1.5118,1.5118,1.5118,1.5118,1.4802,1.4827,1.484,1.4874,1.4891,1.4917,1.493,1.4949,1.4968,1.5,1.5021,1.5037,1.5061,1.5089,1.5113,1.5119,1.5128,1.5128,1.5135,1.5126,1.5126,1.5125,1.512,1.513,1.513,1.5143,1.5143,1.5143]},{"header":{"parameterUnit":"m.s-1","parameterCategory":1,"la1":30.2991,"la2":30.254,"lo1":-89.0895,"lo2":-89.0444,"dy":0.0017,"dx":0.0017,"nx":28,"ny":28,"refTime":"2026-02-24T09:00:00:Z","depth":0,"parameterNumber":3,"parameterNumberName":"V-component_of_WINDS"},"data":[0,0,0,0,0,0,0,0,0,0,0,0,0,0,0,0,0,0,0,0,0,0,0,0,0,0,0,0,0,0,0,0,0,0,0,0,0,0,0,0,0,0,0,0,0,0,0,0,0,0,0,0,0,0,0,0,0,0,-6.2721,-6.2723,0,-6.2896,-6.2898,-6.29,-6.2833,-6.2829,-6.2825,-6.2822,-6.2994,-6.3002,-6.301,0,0,0,0,0,0,0,0,0,0,0,0,0,-6.2325,-6.2333,-6.2721,-6.2724,-6.2726,-6.2895,-6.2898,-6.29,-6.2834,-6.2829,-6.2824,-6.282,-6.2991,-6.3001,-6.3011,0,0,0,0,0,0,0,0,0,0,0,0,0,-6.2498,-6.2336,-6.2721,-6.2713,-6.2714,-6.2895,-6.2898,-6.2901,-6.2835,-6.2829,-6.2823,-6.2818,-6.2988,-6.3,-6.3012,-6.3209,0,0,-6.305,-6.3056,0,0,0,0,0,0,0,0,-6.2489,-6.2513,-6.2712,-6.2714,-6.2716,-6.2837,-6.2821,-6.3004,-6.2837,-6.2789,-6.2822,-6.2815,-6.2946,-6.2962,-6.3007,-6.3217,-6.3224,-6.3051,-6.3059,-6.3064,-6.3068,0,0,0,0,0,0,0,-6.2477,-6.2505,-6.279,-6.2715,-6.2717,-6.2699,-6.2717,-6.2856,-6.2899,-6.2793,-6.2788,-6.281,-6.2946,-6.2995,-6.3011,-6.3227,-6.3051,-6.3062,-6.307,-6.3075,-6.3606,-6.3613,0,0,0,0,0,0,-6.2465,-6.2495,-6.2785,-6.2795,-6.2585,-6.2711,-6.2731,-6.2804,-6.2897,-6.2906,-6.2815,-6.2807,-6.2977,-6.2996,-6.3017,-6.3253,-6.3064,-6.3076,-6.3083,-6.36,-6.3608,-6.3615,0,0,0,0,0,0,-6.2457,-6.2491,-6.2777,-6.2644,-6.2679,-6.2725,-6.2806,-6.281,-6.286,-6.2914,-6.2921,-6.2858,-6.2973,-6.2999,-6.3162,-6.3258,-6.3082,-6.3093,-6.3592,-6.3602,-6.3612,-6.3728,0,0,0,0,0,0,-6.2446,-6.2489,-6.2565,-6.2647,-6.2687,-6.2922,-6.2812,-6.2818,-6.2882,-6.2873,-6.2957,-6.2965,-6.297,-6.3144,-6.3174,-6.3272,-6.3103,-6.3584,-6.3597,-6.3608,-6.3716,-6.3741,-6.3762,0,0,0,0,0,-6.2432,-6.259,-6.257,-6.2605,-6.2784,-6.2928,-6.2951,-6.2956,-6.2891,-6.2967,-6.3002,-6.2962,-6.3243,-6.3161,-6.3195,-6.3298,-6.3577,-6.3593,-6.3607,-6.3705,-6.3736,-6.3762,0,0,0,0,0,0,-6.2516,-6.26,-6.2579,-6.2768,-6.2842,-6.2917,-6.3013,-6.2988,-6.308,-6.3067,-6.3068,-6.3087,-6.3255,-6.3292,-6.32,-6.3493,-6.34,-6.3422,-6.3463,-6.3492,-6.3515,-6.3502,-6.3113,0,0,0,0,0,-6.2557,-6.2669,-6.2736,-6.2896,-6.2935,-6.2968,-6.3031,-6.3029,-6.3104,-6.3134,-6.3181,-6.3254,-6.3358,-6.3427,-6.3526,-6.3721,-6.3737,-6.3808,-6.3831,-6.385,-6.3869,-6.3975,-6.4007,-6.3664,-6.3664,-6.3664,0,0,-6.2642,-6.2702,-6.2773,-6.2915,-6.2972,-6.3086,-6.2994,-6.3119,-6.3204,-6.3152,-6.331,-6.3347,-6.3428,-6.3608,-6.3689,-6.3644,-6.3968,-6.3869,-6.3884,-6.3893,-6.3993,-6.4026,-6.4055,-6.3674,-6.3673,-6.3671,0,0,-6.2857,-6.2914,-6.3054,-6.3113,-6.3201,-6.3222,-6.3256,-6.3335,-6.3359,-6.3517,-6.3481,-6.358,-6.3761,-6.382,-6.3874,-6.4112,-6.4078,-6.4144,-6.4265,-6.4367,-6.4394,-6.4418,-6.4503,-6.4534,-6.4163,-6.4163,-6.4163,0,-6.2951,-6.3124,-6.3129,-6.3258,-6.3321,-6.3282,-6.3423,-6.348,-6.3595,-6.3639,-6.3587,-6.3813,-6.3865,-6.4058,-6.4116,-6.4161,-6.4199,-6.4134,-6.4391,-6.4415,-6.4437,-6.4518,-6.455,-6.417,-6.417,-6.4169,-6.4168,0,-6.3236,-6.3356,-6.3459,-6.3574,-6.3648,-6.3783,-6.3806,-6.3881,-6.3872,-6.3898,-6.406,-6.4121,-6.4232,-6.4277,-6.4269,-6.447,-6.4439,-6.4389,-6.4296,-6.4477,-6.4553,-6.4584,-6.4181,-6.4178,-6.4176,-6.4174,0,0,-6.3508,-6.3625,-6.3662,-6.3714,-6.3808,-6.3901,-6.4032,-6.4143,-6.4207,-6.4288,-6.4398,-6.4552,-6.4506,-6.4568,-6.4566,-6.4656,-6.484,-6.4595,-6.4597,-6.4638,-6.5065,-6.5102,-6.5138,-6.4819,-6.4825,-6.4829,-6.5058,0,-6.373,-6.3965,-6.3973,-6.4186,-6.4297,-6.4261,-6.4376,-6.4445,-6.4473,-6.457,-6.4599,-6.4709,-6.4641,-6.4677,-6.4765,-6.48,-6.4926,-6.4783,-6.492,-6.4925,-6.4901,-6.5178,-6.5218,-6.5431,-6.5088,-6.5093,-6.5097,0,-6.4021,-6.4113,-6.4338,-6.4417,-6.4464,-6.4567,-6.4669,-6.4763,-6.484,-6.4854,-6.4923,-6.4908,-6.5041,-6.4943,-6.5126,-6.5029,-6.5085,-6.511,-6.5118,-6.5131,-6.5022,-6.5199,-6.5499,-6.5531,-6.5143,-6.514,-6.5136,0,-6.4197,-6.4377,-6.4535,-6.4581,-6.4676,-6.475,-6.4793,-6.4865,-6.4931,-6.502,-6.5062,-6.5165,-6.5221,-6.5299,-6.5311,-6.5239,-6.5495,-6.5398,-6.5509,-6.5509,-6.5565,-6.5561,-6.5879,-6.5601,-6.56,-6.56,-6.5599,0,-6.4444,-6.4583,-6.4616,-6.4714,-6.4868,-6.4875,-6.5027,-6.5063,-6.5128,-6.523,-6.5205,-6.5301,-6.5312,-6.541,-6.542,-6.557,-6.5595,-6.5609,-6.561,-6.5612,-6.561,-6.5649,-6.5634,-6.5608,-6.5606,-6.5605,-6.5603,0,-6.4668,-6.4696,-6.4866,-6.4943,-6.4966,-6.5076,-6.5141,-6.5234,-6.5259,-6.5389,-6.542,-6.5459,-6.5574,-6.5594,-6.5729,-6.5736,-6.5915,-6.5901,-6.589,-6.5888,-6.5998,-6.5988,-6.6352,-6.64,-6.609,-6.6093,-6.6096,0,-6.4824,-6.4931,-6.502,-6.5088,-6.5136,-6.5245,-6.5313,-6.5324,-6.5395,-6.5492,-6.5572,-6.5685,-6.5776,-6.5961,-6.6001,-6.6104,-6.6092,-6.6212,-6.6107,-6.6105,-6.6094,-6.6088,-6.6098,-6.6232,-6.6236,-6.6238,-6.6241,0,-6.5099,-6.5107,-6.5208,-6.5314,-6.5396,-6.5479,-6.5558,-6.5614,-6.5635,-6.5716,-6.5835,-6.5906,-6.6045,-6.6157,-6.626,-6.6301,-6.6275,-6.6274,-6.6305,-6.6308,-6.6297,-6.6305,-6.5945,-6.6265,-6.6263,-6.6261,-6.626,-6.6259,-6.5294,-6.5387,-6.5465,-6.5578,-6.5638,-6.5713,-6.5803,-6.5841,-6.5941,-6.6056,-6.6056,-6.6186,-6.6259,-6.6395,-6.6444,-6.6544,-6.6505,-6.655,-6.6562,-6.6573,-6.6584,-6.6281,-6.6562,-6.6562,-6.6561,-6.6561,-6.656,0,-6.5567,-6.5616,-6.572,-6.5832,-6.592,-6.5889,-6.5975,-6.605,-6.6166,-6.6238,-6.6329,-6.6465,-6.6573,-6.6622,-6.6728,-6.6799,-6.679,-6.6827,-6.6822,-6.6832,-6.6612,-6.6575,-6.6833,-6.6833,-6.6833,-6.6833,-6.6833,-6.6833,-6.572,-6.5876,-6.5894,-6.608,-6.6127,-6.6256,-6.6307,-6.6375,-6.6433,-6.6587,-6.6678,-6.671,-6.6772,-6.6883,-6.6981,-6.6992,-6.7032,-6.7076,-6.7081,-6.6875,-6.6847,-6.6821,-6.6786,-6.7084,-6.7085,-6.7293,-6.7295,-6.7296]}]]